When you browse on this site, cookies collect data to enhance your experience and personalize the content and advertising you see.
Visit our Privacy Policy to learn more. By continuing to use the site, you agree to this use of cookies and data.

Hourly Weather Florianópolis

Today, 2 July, Thursday

Time Temperature Precipitation Wind Pressure Humidity
00:00 +14°C° 0 mm 2 mps 761 mmHg 73%
01:00 +14°C° 0 mm 2 mps 761 mmHg 72%
02:00 +14°C° 0 mm 2 mps 762 mmHg 72%
03:00 +14°C° 0 mm 2 mps 762 mmHg 71%
04:00 +13°C° 0 mm 2 mps 761 mmHg 72%
05:00 +12°C° 0 mm 2 mps 761 mmHg 73%
06:00 +12°C° 0 mm 2 mps 761 mmHg 73%
07:00 +13°C° 0 mm 1 mps 762 mmHg 70%
08:00 +14°C° 0 mm 1 mps 763 mmHg 66%
09:00 +15°C° 0 mm 1 mps 763 mmHg 63%
10:00 +16°C° 0 mm 1 mps 763 mmHg 58%
11:00 +18°C° 0 mm 1 mps 763 mmHg 53%
12:00 +19°C° 0 mm 1 mps 763 mmHg 49%
13:00 +18°C° 0 mm 1 mps 763 mmHg 54%
14:00 +18°C° 0 mm 1 mps 763 mmHg 59%
15:00 +16°C° 0 mm 2 mps 762 mmHg 64%
16:00 +16°C° 0.1 mm 2 mps 763 mmHg 70%
17:00 +14°C° 0.1 mm 3 mps 763 mmHg 76%
18:00 +13°C° 0.1 mm 3 mps 763 mmHg 81%
19:00 +13°C° 0.1 mm 3 mps 764 mmHg 82%
20:00 +12°C° 0.1 mm 3 mps 764 mmHg 83%
21:00 +12°C° 0.1 mm 3 mps 765 mmHg 84%
22:00 +13°C° 0 mm 2 mps 765 mmHg 84%
23:00 +13°C° 0 mm 2 mps 765 mmHg 84%

Tomorrow, 3 July, Friday

Time Temperature Precipitation Wind Pressure Humidity
00:00 +12°C° 0 mm 2 mps 765 mmHg 84%
01:00 +12°C° 0 mm 2 mps 765 mmHg 84%
02:00 +10°C° 0 mm 2 mps 765 mmHg 85%
03:00 +11°C° 0 mm 1 mps 765 mmHg 85%
04:00 +10°C° 0 mm 1 mps 765 mmHg 85%
05:00 +10°C° 0 mm 1 mps 765 mmHg 85%
06:00 +10°C° 0 mm 1 mps 765 mmHg 85%
07:00 +10°C° 0 mm 1 mps 765 mmHg 82%
08:00 +11°C° 0 mm 1 mps 766 mmHg 79%
09:00 +12°C° 0 mm 1 mps 766 mmHg 75%
10:00 +14°C° 0 mm 1 mps 766 mmHg 67%
11:00 +15°C° 0 mm 1 mps 765 mmHg 58%
12:00 +18°C° 0 mm 1 mps 765 mmHg 50%
13:00 +18°C° 0 mm 1 mps 765 mmHg 52%
14:00 +17°C° 0 mm 2 mps 765 mmHg 53%
15:00 +17°C° 0 mm 2 mps 764 mmHg 55%
16:00 +15°C° 0 mm 2 mps 764 mmHg 64%
17:00 +14°C° 0 mm 2 mps 765 mmHg 74%
18:00 +12°C° 0 mm 1 mps 765 mmHg 84%
19:00 +12°C° 0 mm 1 mps 765 mmHg 85%
20:00 +12°C° 0 mm 1 mps 766 mmHg 86%
21:00 +11°C° 0 mm 1 mps 767 mmHg 87%
22:00 +11°C° 0 mm 1 mps 766 mmHg 88%
23:00 +11°C° 0 mm 1 mps 766 mmHg 89%

Day after tomorrow, 4 July, Saturday

Time Temperature Precipitation Wind Pressure Humidity
00:00 +11°C° 0 mm 1 mps 766 mmHg 90%
01:00 +11°C° 0 mm 1 mps 766 mmHg 88%
02:00 +11°C° 0 mm 1 mps 765 mmHg 86%
03:00 +12°C° 0 mm 1 mps 765 mmHg 84%
04:00 +12°C° 0 mm 1 mps 765 mmHg 83%
05:00 +13°C° 0 mm 1 mps 765 mmHg 81%
06:00 +13°C° 0 mm 2 mps 765 mmHg 80%
07:00 +14°C° 0 mm 2 mps 765 mmHg 79%
08:00 +15°C° 0 mm 2 mps 765 mmHg 78%
09:00 +15°C° 0 mm 2 mps 765 mmHg 76%
10:00 +17°C° 0 mm 3 mps 765 mmHg 71%
11:00 +19°C° 0 mm 3 mps 764 mmHg 65%
12:00 +20°C° 0 mm 4 mps 764 mmHg 59%
13:00 +21°C° 0 mm 4 mps 763 mmHg 59%
14:00 +21°C° 0 mm 4 mps 763 mmHg 59%
15:00 +21°C° 0 mm 5 mps 762 mmHg 59%
16:00 +20°C° 0 mm 4 mps 762 mmHg 67%
17:00 +18°C° 0 mm 4 mps 762 mmHg 76%
18:00 +17°C° 0 mm 4 mps 762 mmHg 84%
19:00 +17°C° 0 mm 3 mps 762 mmHg 85%
20:00 +16°C° 0 mm 3 mps 763 mmHg 86%
21:00 +16°C° 0 mm 3 mps 763 mmHg 88%
22:00 +16°C° 0 mm 3 mps 763 mmHg 87%
23:00 +16°C° 0 mm 3 mps 763 mmHg 87%

5 July, Sunday

Time Temperature Precipitation Wind Pressure Humidity
00:00 +17°C° 0 mm 2 mps 763 mmHg 86%
01:00 +17°C° 0 mm 2 mps 762 mmHg 86%
02:00 +17°C° 0 mm 3 mps 762 mmHg 86%
03:00 +17°C° 0 mm 3 mps 762 mmHg 85%
04:00 +17°C° 0 mm 3 mps 762 mmHg 87%
05:00 +17°C° 0 mm 3 mps 761 mmHg 88%
06:00 +17°C° 0 mm 3 mps 761 mmHg 89%
07:00 +18°C° 0 mm 3 mps 761 mmHg 86%
08:00 +18°C° 0 mm 3 mps 761 mmHg 83%
09:00 +19°C° 0 mm 4 mps 761 mmHg 80%
10:00 +20°C° 0 mm 4 mps 761 mmHg 75%
11:00 +21°C° 0 mm 4 mps 761 mmHg 71%
12:00 +22°C° 0 mm 4 mps 760 mmHg 66%
13:00 +23°C° 0 mm 4 mps 760 mmHg 63%
14:00 +25°C° 0 mm 3 mps 759 mmHg 60%
15:00 +26°C° 0 mm 3 mps 759 mmHg 57%
16:00 +25°C° 0 mm 3 mps 759 mmHg 63%
17:00 +23°C° 0 mm 2 mps 759 mmHg 68%
18:00 +22°C° 0 mm 1 mps 759 mmHg 74%
19:00 +21°C° 0.2 mm 1 mps 760 mmHg 79%
20:00 +21°C° 0.2 mm 1 mps 760 mmHg 84%
21:00 +20°C° 0.2 mm 1 mps 761 mmHg 89%
22:00 +19°C° 0.3 mm 2 mps 761 mmHg 91%
23:00 +19°C° 0.3 mm 2 mps 761 mmHg 92%

6 July, Monday

Time Temperature Precipitation Wind Pressure Humidity
00:00 +19°C° 0.3 mm 2 mps 761 mmHg 93%
01:00 +19°C° 0 mm 2 mps 761 mmHg 92%
02:00 +19°C° 0 mm 2 mps 761 mmHg 92%
03:00 +19°C° 0 mm 2 mps 761 mmHg 91%
04:00 +19°C° 0.2 mm 2 mps 761 mmHg 91%
05:00 +19°C° 0.2 mm 2 mps 761 mmHg 92%
06:00 +19°C° 0.2 mm 3 mps 761 mmHg 92%
07:00 +18°C° 1 mm 3 mps 761 mmHg 93%
08:00 +18°C° 1 mm 4 mps 762 mmHg 94%
09:00 +18°C° 1 mm 4 mps 762 mmHg 95%
10:00 +18°C° 2.8 mm 4 mps 762 mmHg 95%
11:00 +18°C° 2.8 mm 4 mps 762 mmHg 95%
12:00 +17°C° 2.8 mm 4 mps 762 mmHg 95%
13:00 +17°C° 4.5 mm 4 mps 762 mmHg 95%
14:00 +15°C° 4.5 mm 5 mps 762 mmHg 95%
15:00 +15°C° 4.5 mm 5 mps 762 mmHg 96%
16:00 +15°C° 3.1 mm 5 mps 762 mmHg 96%
17:00 +15°C° 3.1 mm 4 mps 762 mmHg 95%
18:00 +14°C° 3.1 mm 4 mps 762 mmHg 95%
19:00 +14°C° 2.9 mm 4 mps 763 mmHg 95%
20:00 +14°C° 2.9 mm 4 mps 763 mmHg 96%
21:00 +14°C° 2.9 mm 4 mps 763 mmHg 96%
22:00 +14°C° 2.3 mm 4 mps 763 mmHg 96%
23:00 +14°C° 2.3 mm 3 mps 763 mmHg 96%

7 July, Tuesday

Time Temperature Precipitation Wind Pressure Humidity
00:00 +14°C° 2.3 mm 3 mps 763 mmHg 96%
01:00 +14°C° 2.7 mm 3 mps 763 mmHg 96%
02:00 +14°C° 2.7 mm 3 mps 762 mmHg 97%
03:00 +15°C° 2.7 mm 2 mps 762 mmHg 97%
04:00 +15°C° 1.6 mm 2 mps 761 mmHg 97%
05:00 +16°C° 1.6 mm 2 mps 761 mmHg 97%
06:00 +16°C° 1.6 mm 1 mps 761 mmHg 97%
07:00 +16°C° 0.7 mm 2 mps 761 mmHg 97%
08:00 +17°C° 0.7 mm 2 mps 761 mmHg 97%
09:00 +17°C° 0.7 mm 2 mps 761 mmHg 96%
10:00 +19°C° 0 mm 1 mps 760 mmHg 94%
11:00 +20°C° 0 mm 1 mps 760 mmHg 92%
12:00 +21°C° 0 mm 1 mps 759 mmHg 90%
13:00 +21°C° 0 mm 1 mps 759 mmHg 89%
14:00 +22°C° 0 mm 1 mps 758 mmHg 89%
15:00 +22°C° 0 mm 1 mps 757 mmHg 88%
16:00 +22°C° 0 mm 1 mps 757 mmHg 90%
17:00 +21°C° 0 mm 1 mps 757 mmHg 92%
18:00 +21°C° 0 mm 1 mps 757 mmHg 94%
19:00 +21°C° 0 mm 1 mps 757 mmHg 94%
20:00 +21°C° 0 mm 1 mps 758 mmHg 94%
21:00 +21°C° 0 mm 1 mps 758 mmHg 95%
22:00 +20°C° 0 mm 2 mps 758 mmHg 95%
23:00 +19°C° 0 mm 2 mps 758 mmHg 95%
Show more